RYR57ME LIME-LIBD

Flight info

Callsign RYR57ME
Flight time 1h 5m
Altitude 33000
Route LOGDI1S LOGDI DCT LOMED DCT GENGI DCT EVULI DCT ERIKA DCT AMSOR/N0363F190 L995 DOGUS DOGUS1F
Aircraft A320/M-SDE3FGHIRWY/LB1

Departure

Time 2026-04-30 09:02
Airport Il Caravaggio International Airport (LIME)

Arrival

Time 2026-04-30 10:08
Airport Bari Karol Wojtyła International Airport (LIBD)
Time Latitude Longitude Altitude Speed Heading
2026-04-30 08:46 45.66622 9.70113 788 ft 0 kts 195°
2026-04-30 08:57 45.66641 9.70121 787 ft 4 kts 197°
2026-04-30 08:57 45.66666 9.70133 787 ft 4 kts 201°
2026-04-30 08:57 45.66691 9.70149 787 ft 4 kts 214°
2026-04-30 08:58 45.66708 9.70173 787 ft 4 kts 261°
2026-04-30 08:58 45.66708 9.70184 787 ft 0 kts 284°
2026-04-30 08:59 45.66709 9.70183 787 ft 1 kts 284°
2026-04-30 09:00 45.66713 9.70156 787 ft 7 kts 284°
2026-04-30 09:00 45.66733 9.70044 787 ft 16 kts 284°
2026-04-30 09:00 45.66771 9.69844 787 ft 25 kts 285°
2026-04-30 09:00 45.66823 9.69567 787 ft 31 kts 285°
2026-04-30 09:01 45.66875 9.69289 787 ft 28 kts 285°
2026-04-30 09:01 45.66907 9.69070 787 ft 20 kts 277°
2026-04-30 09:01 45.66972 9.68987 787 ft 15 kts 12°
2026-04-30 09:01 45.67055 9.69064 787 ft 14 kts 67°
2026-04-30 09:02 45.66956 9.69765 787 ft 98 kts 105°
2026-04-30 09:02 45.66719 9.71027 841 ft 156 kts 107°
2026-04-30 09:02 45.66423 9.72505 1646 ft 155 kts 107°
2026-04-30 09:03 45.66004 9.73927 2298 ft 164 kts 121°
2026-04-30 09:03 45.65213 9.75237 2741 ft 182 kts 140°
2026-04-30 09:03 45.64101 9.76138 3706 ft 187 kts 158°
2026-04-30 09:03 45.62781 9.76485 4189 ft 206 kts 177°
2026-04-30 09:04 45.61301 9.76031 4574 ft 231 kts 202°
2026-04-30 09:04 45.59962 9.74699 5374 ft 237 kts 216°
2026-04-30 09:04 45.58677 9.73205 6194 ft 239 kts 217°
2026-04-30 09:04 45.57380 9.71700 6999 ft 241 kts 220°
2026-04-30 09:05 45.56268 9.69885 7724 ft 246 kts 234°
2026-04-30 09:05 45.55229 9.67888 8304 ft 259 kts 228°
2026-04-30 09:05 45.53707 9.66368 8477 ft 280 kts 198°
2026-04-30 09:05 45.51757 9.66118 9045 ft 289 kts 167°
2026-04-30 09:06 45.49917 9.67275 9726 ft 293 kts 146°
2026-04-30 09:06 45.48180 9.68875 10316 ft 304 kts 145°
2026-04-30 09:06 45.46346 9.70602 10538 ft 327 kts 145°
2026-04-30 09:06 45.44394 9.72446 10852 ft 344 kts 144°
2026-04-30 09:07 45.42365 9.74354 11372 ft 353 kts 145°
2026-04-30 09:07 45.40306 9.76274 12080 ft 356 kts 144°
2026-04-30 09:07 45.38209 9.78219 12652 ft 363 kts 144°
2026-04-30 09:07 45.36078 9.80190 13299 ft 368 kts 144°
2026-04-30 09:08 45.33915 9.82189 13939 ft 373 kts 145°
2026-04-30 09:08 45.32468 9.83525 14335 ft 376 kts 145°
2026-04-30 09:08 45.30266 9.85558 14944 ft 379 kts 145°
2026-04-30 09:08 45.28051 9.87598 15543 ft 381 kts 145°
2026-04-30 09:09 45.25818 9.89655 16175 ft 383 kts 145°
2026-04-30 09:09 45.23575 9.91723 16711 ft 387 kts 145°
2026-04-30 09:09 45.21309 9.93812 17310 ft 389 kts 146°
2026-04-30 09:09 45.19036 9.95905 17953 ft 391 kts 145°
2026-04-30 09:10 45.16744 9.98015 18505 ft 395 kts 145°
2026-04-30 09:10 45.14429 10.00142 19018 ft 399 kts 145°
2026-04-30 09:10 45.12079 10.02294 19468 ft 405 kts 146°
2026-04-30 09:10 45.09705 10.04466 20002 ft 408 kts 146°
2026-04-30 09:11 45.07312 10.06659 20543 ft 411 kts 146°
2026-04-30 09:11 45.04905 10.08865 21094 ft 413 kts 146°
2026-04-30 09:11 45.02487 10.11081 21608 ft 417 kts 146°
2026-04-30 09:11 45.00041 10.13318 22102 ft 420 kts 146°
2026-04-30 09:12 44.97579 10.15563 22615 ft 423 kts 146°
2026-04-30 09:12 44.95095 10.17825 23109 ft 426 kts 146°
2026-04-30 09:12 44.92595 10.20096 23571 ft 429 kts 147°
2026-04-30 09:12 44.90066 10.22387 23975 ft 434 kts 147°
2026-04-30 09:13 44.87514 10.24699 24340 ft 437 kts 147°
2026-04-30 09:13 44.84944 10.27026 24709 ft 441 kts 147°
2026-04-30 09:13 44.82354 10.29372 25081 ft 444 kts 147°
2026-04-30 09:13 44.79749 10.31730 25385 ft 447 kts 147°
2026-04-30 09:14 44.77125 10.34110 25722 ft 451 kts 148°
2026-04-30 09:14 44.74475 10.36507 26080 ft 454 kts 148°
2026-04-30 09:14 44.71810 10.38914 26396 ft 457 kts 148°
2026-04-30 09:14 44.69156 10.41307 26655 ft 462 kts 149°
2026-04-30 09:15 44.66442 10.43752 26950 ft 465 kts 149°
2026-04-30 09:15 44.63707 10.46208 27267 ft 468 kts 149°
2026-04-30 09:15 44.60948 10.48684 27601 ft 471 kts 149°
2026-04-30 09:15 44.58176 10.51175 27913 ft 474 kts 149°
2026-04-30 09:16 44.55387 10.53677 28244 ft 477 kts 149°
2026-04-30 09:16 44.52575 10.56194 28567 ft 480 kts 150°
2026-04-30 09:16 44.49753 10.58716 28878 ft 483 kts 150°
2026-04-30 09:16 44.46902 10.61259 29113 ft 488 kts 151°
2026-04-30 09:17 44.44028 10.63821 29397 ft 491 kts 151°
2026-04-30 09:17 44.41137 10.66393 29709 ft 494 kts 151°
2026-04-30 09:17 44.38236 10.68970 30133 ft 494 kts 151°
2026-04-30 09:17 44.35335 10.71551 30522 ft 494 kts 151°
2026-04-30 09:18 44.32435 10.74133 30887 ft 494 kts 151°
2026-04-30 09:18 44.29538 10.76703 31265 ft 493 kts 151°
2026-04-30 09:18 44.26644 10.79266 31663 ft 492 kts 151°
2026-04-30 09:18 44.23755 10.81821 32052 ft 491 kts 151°
2026-04-30 09:19 44.20874 10.84366 32459 ft 490 kts 151°
2026-04-30 09:19 44.17994 10.86911 32865 ft 490 kts 151°
2026-04-30 09:19 44.15118 10.89448 33175 ft 490 kts 151°
2026-04-30 09:19 44.12229 10.91989 33237 ft 491 kts 151°
2026-04-30 09:20 44.06446 10.97068 33232 ft 491 kts 152°
2026-04-30 09:20 44.00918 11.02675 33226 ft 496 kts 139°
2026-04-30 09:21 43.95889 11.09251 33221 ft 497 kts 139°
2026-04-30 09:21 43.90846 11.15819 33218 ft 497 kts 139°
2026-04-30 09:22 43.85805 11.22365 33212 ft 496 kts 139°
2026-04-30 09:22 43.80769 11.28886 33230 ft 495 kts 139°
2026-04-30 09:23 43.75762 11.35354 33242 ft 495 kts 140°
2026-04-30 09:23 43.70719 11.41843 33221 ft 495 kts 140°
2026-04-30 09:24 43.65675 11.48336 33226 ft 496 kts 140°
2026-04-30 09:24 43.60620 11.54826 33218 ft 495 kts 140°
2026-04-30 09:25 43.55575 11.61272 33232 ft 494 kts 140°
2026-04-30 09:25 43.50532 11.67697 33243 ft 493 kts 140°
2026-04-30 09:26 43.45493 11.74123 33222 ft 494 kts 140°
2026-04-30 09:26 43.40451 11.80545 33204 ft 493 kts 140°
2026-04-30 09:27 43.35411 11.86934 33222 ft 492 kts 140°
2026-04-30 09:27 43.30377 11.93292 33229 ft 491 kts 140°
2026-04-30 09:28 43.25345 11.99626 33221 ft 490 kts 140°
2026-04-30 09:28 43.20321 12.05948 33235 ft 490 kts 141°
2026-04-30 09:29 43.15289 12.12269 33196 ft 490 kts 141°
2026-04-30 09:29 43.10255 12.18570 33201 ft 490 kts 141°
2026-04-30 09:30 43.05223 12.24867 33196 ft 490 kts 141°
2026-04-30 09:30 43.00185 12.31149 33195 ft 490 kts 141°
2026-04-30 09:31 42.95138 12.37414 33169 ft 490 kts 141°
2026-04-30 09:31 42.90096 12.43673 33204 ft 490 kts 141°
2026-04-30 09:32 42.85054 12.49925 33179 ft 490 kts 141°
2026-04-30 09:32 42.80010 12.56152 33168 ft 490 kts 141°
2026-04-30 09:33 42.74956 12.62372 33167 ft 489 kts 141°
2026-04-30 09:33 42.69910 12.68578 33140 ft 488 kts 141°
2026-04-30 09:34 42.64874 12.74759 33150 ft 487 kts 141°
2026-04-30 09:34 42.59843 12.80927 33160 ft 487 kts 141°
2026-04-30 09:35 42.54809 12.87086 33155 ft 487 kts 141°
2026-04-30 09:35 42.49772 12.93215 33146 ft 487 kts 141°
2026-04-30 09:36 42.44729 12.99334 33140 ft 486 kts 141°
2026-04-30 09:36 42.39732 13.05402 33148 ft 485 kts 141°
2026-04-30 09:37 42.34775 13.11592 33157 ft 485 kts 140°
2026-04-30 09:37 42.29903 13.17899 33169 ft 485 kts 139°
2026-04-30 09:38 42.25031 13.24204 33176 ft 485 kts 140°
2026-04-30 09:38 42.20134 13.30457 33181 ft 484 kts 140°
2026-04-30 09:39 42.15224 13.36668 33203 ft 483 kts 140°
2026-04-30 09:39 42.10327 13.42873 33197 ft 483 kts 140°
2026-04-30 09:40 42.05436 13.49072 33190 ft 483 kts 140°
2026-04-30 09:40 42.00536 13.55267 33204 ft 483 kts 140°
2026-04-30 09:41 41.95632 13.61440 33192 ft 483 kts 140°
2026-04-30 09:41 41.90716 13.67610 33195 ft 484 kts 140°
2026-04-30 09:42 41.85831 13.73739 33185 ft 484 kts 140°
2026-04-30 09:42 41.80914 13.79900 33187 ft 484 kts 140°
2026-04-30 09:43 41.75994 13.86055 33171 ft 483 kts 140°
2026-04-30 09:43 41.71068 13.92195 33188 ft 483 kts 140°
2026-04-30 09:44 41.66145 13.98308 33170 ft 482 kts 140°
2026-04-30 09:44 41.61427 14.04681 33168 ft 485 kts 130°
2026-04-30 09:45 41.57431 14.11954 33168 ft 486 kts 128°
2026-04-30 09:45 41.53424 14.19235 33160 ft 486 kts 128°
2026-04-30 09:46 41.49419 14.26495 33166 ft 485 kts 128°
2026-04-30 09:46 41.45414 14.33727 33161 ft 484 kts 128°
2026-04-30 09:47 41.41410 14.40938 33171 ft 484 kts 128°
2026-04-30 09:47 41.37415 14.48134 33171 ft 483 kts 128°
2026-04-30 09:48 41.33417 14.55328 32978 ft 483 kts 128°
2026-04-30 09:48 41.31420 14.58911 32643 ft 481 kts 128°
2026-04-30 09:48 41.29422 14.62495 31452 ft 484 kts 128°
2026-04-30 09:49 41.27415 14.66088 30189 ft 484 kts 128°
2026-04-30 09:49 41.25406 14.69680 28778 ft 484 kts 128°
2026-04-30 09:49 41.23413 14.73242 27803 ft 474 kts 128°
2026-04-30 09:49 41.21469 14.76717 26900 ft 464 kts 128°
2026-04-30 09:50 41.19590 14.80064 26277 ft 450 kts 128°
2026-04-30 09:50 41.17764 14.83334 25822 ft 434 kts 126°
2026-04-30 09:50 41.16260 14.86748 25334 ft 423 kts 116°
2026-04-30 09:50 41.15218 14.90339 24926 ft 411 kts 106°
2026-04-30 09:51 41.14761 14.92797 24653 ft 402 kts 102°
2026-04-30 09:51 41.14176 14.96377 24256 ft 396 kts 102°
2026-04-30 09:51 41.13602 14.99899 23848 ft 395 kts 102°
2026-04-30 09:51 41.13022 15.03464 23393 ft 395 kts 102°
2026-04-30 09:52 41.12683 15.07040 23235 ft 389 kts 92°
2026-04-30 09:52 41.12526 15.10632 22859 ft 390 kts 93°
2026-04-30 09:52 41.12356 15.14213 22416 ft 388 kts 93°
2026-04-30 09:52 41.12182 15.17787 21950 ft 387 kts 93°
2026-04-30 09:53 41.12010 15.21346 21490 ft 387 kts 93°
2026-04-30 09:53 41.11841 15.24919 21008 ft 387 kts 92°
2026-04-30 09:53 41.11673 15.28476 20529 ft 388 kts 92°
2026-04-30 09:53 41.11504 15.32053 20039 ft 389 kts 92°
2026-04-30 09:54 41.11332 15.35642 19538 ft 391 kts 92°
2026-04-30 09:54 41.11159 15.39239 19037 ft 392 kts 92°
2026-04-30 09:54 41.10983 15.42857 18534 ft 393 kts 92°
2026-04-30 09:54 41.10808 15.46479 17973 ft 394 kts 92°
2026-04-30 09:55 41.10634 15.50096 17466 ft 392 kts 92°
2026-04-30 09:55 41.10459 15.53686 16950 ft 389 kts 92°
2026-04-30 09:55 41.10280 15.57256 16449 ft 387 kts 92°
2026-04-30 09:55 41.10103 15.60800 15943 ft 384 kts 92°
2026-04-30 09:56 41.09927 15.64324 15443 ft 382 kts 92°
2026-04-30 09:56 41.09754 15.67829 14934 ft 379 kts 92°
2026-04-30 09:56 41.09581 15.71303 14438 ft 377 kts 92°
2026-04-30 09:56 41.09408 15.74763 13938 ft 375 kts 92°
2026-04-30 09:57 41.09233 15.78191 13440 ft 371 kts 92°
2026-04-30 09:57 41.09056 15.81588 12942 ft 367 kts 92°
2026-04-30 09:57 41.08882 15.84943 12468 ft 363 kts 92°
2026-04-30 09:57 41.08708 15.88259 11995 ft 359 kts 92°
2026-04-30 09:58 41.08536 15.91555 11529 ft 357 kts 91°
2026-04-30 09:58 41.08366 15.94812 11023 ft 354 kts 91°
2026-04-30 09:58 41.08197 15.98051 10587 ft 350 kts 90°
2026-04-30 09:58 41.08023 16.01228 10379 ft 339 kts 91°
2026-04-30 09:59 41.07689 16.07239 10130 ft 315 kts 90°
2026-04-30 09:59 41.07381 16.12869 9441 ft 300 kts 90°
2026-04-30 10:00 41.07087 16.18286 8175 ft 294 kts 90°
2026-04-30 10:00 41.06942 16.20992 7530 ft 293 kts 90°
2026-04-30 10:01 41.06655 16.26324 6343 ft 287 kts 90°
2026-04-30 10:01 41.06511 16.28955 5721 ft 285 kts 90°
2026-04-30 10:01 41.06367 16.31554 5151 ft 282 kts 91°
2026-04-30 10:02 41.06085 16.36385 4886 ft 244 kts 92°
2026-04-30 10:02 41.05955 16.38597 4782 ft 239 kts 91°
2026-04-30 10:02 41.05832 16.40780 4677 ft 236 kts 89°
2026-04-30 10:02 41.05710 16.42948 4572 ft 234 kts 90°
2026-04-30 10:03 41.05589 16.45051 4470 ft 224 kts 90°
2026-04-30 10:03 41.05635 16.47052 4382 ft 213 kts 70°
2026-04-30 10:03 41.06102 16.48878 4156 ft 208 kts 62°
2026-04-30 10:03 41.06622 16.50675 3884 ft 208 kts 64°
2026-04-30 10:04 41.07138 16.52470 3603 ft 208 kts 64°
2026-04-30 10:04 41.07649 16.54258 3335 ft 207 kts 63°
2026-04-30 10:04 41.08158 16.56041 3056 ft 207 kts 64°
2026-04-30 10:04 41.08667 16.57822 2828 ft 204 kts 64°
2026-04-30 10:05 41.09166 16.59573 2524 ft 202 kts 64°
2026-04-30 10:05 41.09658 16.61301 2243 ft 198 kts 63°
2026-04-30 10:05 41.10141 16.62996 1989 ft 196 kts 62°
2026-04-30 10:05 41.10623 16.64688 1724 ft 195 kts 64°
2026-04-30 10:06 41.11085 16.66317 1455 ft 183 kts 65°
2026-04-30 10:06 41.11508 16.67816 1256 ft 163 kts 61°
2026-04-30 10:06 41.11894 16.69176 1024 ft 152 kts 64°
2026-04-30 10:06 41.12259 16.70452 825 ft 147 kts 64°
2026-04-30 10:07 41.12617 16.71705 615 ft 144 kts 59°
2026-04-30 10:07 41.12980 16.72944 392 ft 146 kts 67°
2026-04-30 10:07 41.13324 16.74191 198 ft 142 kts 62°
2026-04-30 10:07 41.13638 16.75293 141 ft 87 kts 70°
2026-04-30 10:08 41.13685 16.75604 140 ft 21 kts 101°
2026-04-30 10:08 41.13653 16.75794 141 ft 22 kts 104°
2026-04-30 10:08 41.13635 16.75989 136 ft 20 kts 103°
2026-04-30 10:08 41.13563 16.76111 136 ft 16 kts 124°
2026-04-30 10:09 41.13570 16.76227 136 ft 12 kts 69°
2026-04-30 10:09 41.13545 16.76277 136 ft 8 kts 158°
2026-04-30 10:09 41.13516 16.76291 136 ft 3 kts 159°
2026-04-30 10:09 41.13514 16.76292 136 ft 0 kts 159°
2026-04-30 10:15 41.13515 16.76292 137 ft 0 kts 159°